Home   Weather   Calgary   Past weeks
Flag for Canada

Past Weather in Calgary, Alberta, Canada — Yesterday and Last 2 Weeks

Now
37 °F

Partly cloudy.


Feels Like: 33 °F
Forecast: 48 / 30 °F
Wind: 6 mph from Southwest

Location: Calgary International

Current Time: Oct 19, 2019 at 2:10:14 am

Latest Report: Oct 19, 2019 at 1:00 am


Visibility: 15 mi

Pressure: 29.63 "Hg (25.98 "Hg at 1063m altitude)

Humidity: 48%

Dew Point: 19 °F

Location of CalgaryLocation

Past Weather in Calgary — Graph

°F

Calgary Temperature Yesterday

Maximum temperature yesterday: 52 °F (at 2:00 pm)
Minimum temperature yesterday: 34 °F (at 1:00 am)
Average temperature yesterday: 43 °F

High & Low Weather Summary for the Past Weeks

 TemperatureHumidityPressure
High64 °F (Oct 7, 4:00 pm)93% (Oct 8, 2:00 am)30.54 "Hg (Oct 8, 2:00 am)
Low12 °F (Oct 10, 7:00 am)23% (Oct 4, 3:00 pm)29.38 "Hg (Oct 17, 6:00 am)
Average39 °F58%29.98 "Hg
* Reported Oct 4 1:00 am — Oct 19 1:00 am, Calgary. Weather by CustomWeather, © 2019

Note: Actual official high and low records may vary slightly from our data, if they occured in-between our weather recording intervals... More about our weather records

Advertising

Calgary Weather History for the Previous 24 Hours

Scroll right to see more
 ConditionsComfort  
Time TempWeatherWind HumidityBarometerVisibility
1:00 am
Sat, Oct 19
37 °FPartly cloudy.6 mph48%29.63 "Hg15 mi
12:00 am39 °FPartly cloudy.6 mph45%29.64 "Hg15 mi
11:00 pm
Fri, Oct 18
41 °FPartly cloudy.5 mph42%29.65 "Hg15 mi
10:00 pm41 °FPassing clouds.3 mph39%29.66 "Hg15 mi
9:00 pm45 °FPassing clouds.18 mph34%29.66 "Hg15 mi
8:00 pm45 °FPassing clouds.20 mph37%29.65 "Hg15 mi
7:00 pm46 °FPassing clouds.17 mph32%29.62 "Hg30 mi
6:00 pm50 °FPassing clouds.17 mph28%29.60 "Hg20 mi
5:00 pm52 °FPassing clouds.23 mph24%29.55 "Hg25 mi
4:00 pm52 °FScattered clouds.20 mph26%29.55 "Hg30 mi
3:00 pm52 °FPartly sunny.18 mph26%29.52 "Hg30 mi
2:00 pm52 °FPartly sunny.23 mph26%29.52 "Hg40 mi
1:00 pm50 °FPartly sunny.16 mph28%29.52 "Hg30 mi
12:00 pm48 °FPartly sunny.16 mph34%29.50 "Hg35 mi
11:00 am45 °FPartly sunny.15 mph46%29.49 "Hg30 mi
10:00 am43 °FBroken clouds.7 mph49%29.47 "Hg40 mi
9:00 am39 °FPartly sunny.6 mph61%29.47 "Hg30 mi
8:00 am36 °FPassing clouds.6 mph70%29.46 "Hg40 mi
7:00 am39 °FPassing clouds.7 mph52%29.46 "Hg15 mi
6:00 am39 °FPartly cloudy.8 mph56%29.45 "Hg15 mi
5:00 am43 °FPassing clouds.3 mph46%29.45 "Hg15 mi
4:00 am37 °FPassing clouds.6 mph60%29.47 "Hg15 mi
3:00 am39 °FPassing clouds.8 mph52%29.46 "Hg15 mi
2:00 am36 °FPassing clouds.2 mph60%29.47 "Hg15 mi
Weather by CustomWeather, © 2019

See weather overview